| time (UTC) | temp F | wind direction | speed knots | gust knots | rain 1hr in | rain 24hr in | rain mn in | humidity % | barometer mb |
| 20260505053511 | 48 | 134 | 5.2 | 0.0 | 0.00 | 0.00 | 0.00 | 80 | 1004.9 |
| 20260505053011 | 48 | 132 | 5.2 | 0.0 | 0.00 | 0.00 | 0.00 | 80 | 1004.9 |
| 20260505052509 | 48 | 130 | 4.3 | 0.0 | 0.00 | 0.00 | 0.00 | 80 | 1004.9 |
| 20260505052009 | 48 | 136 | 4.3 | 0.0 | 0.00 | 0.00 | 0.00 | 80 | 1004.9 |
| 20260505051509 | 48 | 134 | 4.3 | 0.0 | 0.00 | 0.00 | 0.00 | 81 | 1005.0 |
| 20260505051009 | 48 | 137 | 3.5 | 0.0 | 0.00 | 0.00 | 0.00 | 80 | 1004.9 |
| 20260505050508 | 48 | 138 | 3.5 | 0.0 | 0.00 | 0.00 | 0.00 | 80 | 1004.9 |
| 20260505041503 | 49 | 132 | 3.5 | 0.0 | 0.00 | 0.00 | 0.00 | 78 | 1004.9 |
| 20260505041002 | 49 | 131 | 3.5 | 0.0 | 0.00 | 0.00 | 0.00 | 79 | 1004.9 |
| 20260505040501 | 49 | 131 | 3.5 | 0.0 | 0.00 | 0.00 | 0.00 | 78 | 1004.9 |
| 20260505040100 | 49 | 130 | 3.5 | 0.0 | 0.00 | 0.00 | 0.00 | 78 | 1004.8 |
| 20260505035558 | 49 | 130 | 4.3 | 0.0 | 0.00 | 0.00 | 0.00 | 78 | 1004.9 |
| 20260505035100 | 50 | 131 | 4.3 | 0.0 | 0.00 | 0.00 | 0.00 | 78 | 1004.8 |
| 20260505034558 | 50 | 131 | 4.3 | 0.0 | 0.00 | 0.00 | 0.00 | 77 | 1004.8 |
| 20260505034056 | 50 | 131 | 4.3 | 0.0 | 0.00 | 0.00 | 0.00 | 77 | 1004.7 |
| 20260505033556 | 50 | 132 | 5.2 | 0.0 | 0.00 | 0.00 | 0.00 | 77 | 1004.8 |
| 20260505033056 | 50 | 132 | 4.3 | 0.0 | 0.00 | 0.00 | 0.00 | 77 | 1004.8 |
| 20260505032554 | 50 | 134 | 4.3 | 0.0 | 0.00 | 0.00 | 0.00 | 76 | 1004.8 |
| 20260505032053 | 50 | 138 | 4.3 | 0.0 | 0.00 | 0.00 | 0.00 | 75 | 1004.9 |
| 20260505031556 | 51 | 138 | 4.3 | 0.0 | 0.00 | 0.00 | 0.00 | 75 | 1004.9 |
| 20260505031052 | 51 | 140 | 4.3 | 0.0 | 0.00 | 0.00 | 0.00 | 75 | 1004.8 |
| 20260505030556 | 51 | 142 | 4.3 | 0.0 | 0.00 | 0.00 | 0.00 | 74 | 1004.8 |
| 20260505030051 | 51 | 146 | 3.5 | 0.0 | 0.00 | 0.00 | 0.00 | 74 | 1004.8 |
| 20260505025551 | 51 | 157 | 3.5 | 0.0 | 0.00 | 0.00 | 0.00 | 74 | 1004.8 |
| 20260505025050 | 52 | 161 | 3.5 | 0.0 | 0.00 | 0.00 | 0.00 | 74 | 1004.8 |
| 20260505024606 | 52 | 161 | 2.6 | 0.0 | 0.00 | 0.00 | 0.00 | 73 | 1004.7 |
| 20260505024054 | 52 | 161 | 2.6 | 0.0 | 0.00 | 0.00 | 0.00 | 75 | 1004.8 |
| 20260505023550 | 52 | 161 | 2.6 | 0.0 | 0.00 | 0.00 | 0.00 | 75 | 1004.8 |
| 20260505023050 | 53 | 161 | 2.6 | 0.0 | 0.00 | 0.00 | 0.00 | 75 | 1004.8 |
| 20260505022550 | 53 | 161 | 2.6 | 0.0 | 0.00 | 0.00 | 0.00 | 74 | 1004.9 |
| 20260505022051 | 53 | 162 | 2.6 | 0.0 | 0.00 | 0.00 | 0.00 | 74 | 1004.9 |
| 20260505021604 | 53 | 161 | 2.6 | 0.0 | 0.00 | 0.00 | 0.00 | 73 | 1004.9 |
| 20260505021051 | 54 | 161 | 2.6 | 0.0 | 0.00 | 0.00 | 0.00 | 73 | 1004.9 |
| 20260505020549 | 54 | 161 | 2.6 | 0.0 | 0.00 | 0.00 | 0.00 | 73 | 1005.0 |
| 20260505020049 | 54 | 162 | 1.7 | 0.0 | 0.00 | 0.00 | 0.00 | 70 | 1005.0 |
| 20260505015548 | 54 | 162 | 0.9 | 0.0 | 0.00 | 0.00 | 0.00 | 70 | 1005.0 |
| 20260505015048 | 54 | 162 | 0.0 | 0.0 | 0.00 | 0.00 | 0.00 | 69 | 1005.0 |
| 20260505014548 | 54 | 162 | 0.9 | 0.0 | 0.00 | 0.00 | 0.00 | 69 | 1004.9 |
| 20260505014048 | 55 | 162 | 1.7 | 0.0 | 0.00 | 0.00 | 0.00 | 69 | 1005.0 |
| 20260505013547 | 55 | 162 | 4.3 | 0.0 | 0.00 | 0.00 | 0.00 | 68 | 1005.0 |
| 20260505013046 | 55 | 142 | 5.2 | 0.0 | 0.00 | 0.00 | 0.00 | 66 | 1004.9 |
| 20260505012546 | 56 | 138 | 5.2 | 0.0 | 0.00 | 0.00 | 0.00 | 66 | 1004.9 |
| 20260505012048 | 56 | 140 | 4.3 | 0.0 | 0.00 | 0.00 | 0.00 | 65 | 1004.8 |
| 20260505011554 | 56 | 138 | 5.2 | 0.0 | 0.00 | 0.00 | 0.00 | 64 | 1004.7 |
| 20260505011046 | 56 | 137 | 5.2 | 0.0 | 0.00 | 0.00 | 0.00 | 63 | 1004.7 |
| 20260505010548 | 57 | 140 | 5.2 | 0.0 | 0.00 | 0.00 | 0.00 | 63 | 1004.6 |
| 20260505010046 | 57 | 136 | 5.2 | 0.0 | 0.00 | 0.00 | 0.00 | 62 | 1004.6 |
| 20260505005545 | 58 | 137 | 5.2 | 0.0 | 0.00 | 0.00 | 0.00 | 62 | 1004.6 |
| 20260505005045 | 58 | 140 | 4.3 | 0.0 | 0.00 | 0.00 | 0.00 | 61 | 1004.5 |
| 20260505004547 | 58 | 137 | 4.3 | 0.0 | 0.00 | 0.00 | 0.00 | 60 | 1004.5 |
| 20260505004044 | 59 | 148 | 4.3 | 0.0 | 0.00 | 0.00 | 0.00 | 59 | 1004.4 |
| 20260505003544 | 59 | 130 | 4.3 | 0.0 | 0.00 | 0.00 | 0.00 | 59 | 1004.5 |
| 20260505003044 | 60 | 136 | 4.3 | 0.0 | 0.00 | 0.00 | 0.00 | 58 | 1004.4 |
| 20260505002545 | 60 | 134 | 5.2 | 0.0 | 0.00 | 0.00 | 0.00 | 59 | 1004.3 |
| 20260505002045 | 61 | 136 | 5.2 | 0.0 | 0.00 | 0.00 | 0.00 | 59 | 1004.2 |
| 20260505001545 | 62 | 136 | 4.3 | 0.0 | 0.00 | 0.00 | 0.00 | 59 | 1004.2 |
| 20260505001044 | 62 | 136 | 4.3 | 0.0 | 0.00 | 0.00 | 0.00 | 57 | 1004.3 |
| 20260505000545 | 63 | 137 | 4.3 | 0.0 | 0.00 | 0.00 | 0.00 | 52 | 1004.2 |
| 20260505000045 | 63 | 140 | 3.5 | 0.0 | 0.00 | 0.00 | 0.00 | 52 | 1004.2 |
| 20260504235543 | 64 | 186 | 3.5 | 0.0 | 0.00 | 0.00 | 0.00 | 50 | 1004.3 |
| 20260504235043 | 64 | 186 | 1.7 | 0.0 | 0.00 | 0.00 | 0.00 | 51 | 1004.4 |
| 20260504234542 | 65 | 226 | 0.9 | 0.0 | 0.00 | 0.00 | 0.00 | 50 | 1004.4 |
| 20260504234045 | 65 | 227 | 0.9 | 0.0 | 0.00 | 0.00 | 0.00 | 45 | 1004.2 |
| 20260504233542 | 65 | 228 | 3.5 | 0.0 | 0.00 | 0.00 | 0.00 | 45 | 1004.1 |
| 20260504233055 | 65 | 225 | 4.3 | 0.0 | 0.00 | 0.00 | 0.00 | 47 | 1004.1 |
| 20260504232542 | 66 | 248 | 5.2 | 0.0 | 0.00 | 0.00 | 0.00 | 47 | 1003.9 |
| 20260504232042 | 66 | 221 | 5.2 | 0.0 | 0.00 | 0.00 | 0.00 | 50 | 1003.9 |
| 20260504231541 | 66 | 225 | 7.0 | 0.0 | 0.00 | 0.00 | 0.00 | 49 | 1004.0 |
| 20260504231041 | 67 | 234 | 8.7 | 0.0 | 0.00 | 0.00 | 0.00 | 49 | 1004.0 |
| 20260504230541 | 67 | 232 | 9.6 | 0.0 | 0.00 | 0.00 | 0.00 | 46 | 1004.0 |
| 20260504230043 | 67 | 219 | 8.7 | 0.0 | 0.00 | 0.00 | 0.00 | 47 | 1003.9 |
| 20260504225540 | 68 | 251 | 7.8 | 0.0 | 0.00 | 0.00 | 0.00 | 46 | 1003.9 |
| 20260504225039 | 68 | 241 | 9.6 | 0.0 | 0.00 | 0.00 | 0.00 | 49 | 1003.9 |
| 20260504224539 | 68 | 218 | 9.6 | 0.0 | 0.00 | 0.00 | 0.00 | 45 | 1003.8 |
| 20260504224041 | 68 | 211 | 7.8 | 0.0 | 0.00 | 0.00 | 0.00 | 44 | 1003.7 |
| 20260504223538 | 68 | 250 | 8.7 | 0.0 | 0.00 | 0.00 | 0.00 | 41 | 1003.6 |
| 20260504223038 | 68 | 225 | 7.0 | 0.0 | 0.00 | 0.00 | 0.00 | 42 | 1003.5 |
| 20260504222537 | 68 | 234 | 7.0 | 0.0 | 0.00 | 0.00 | 0.00 | 48 | 1003.5 |
| 20260504222035 | 68 | 232 | 7.8 | 0.0 | 0.00 | 0.00 | 0.00 | 44 | 1003.6 |
| 20260504221538 | 68 | 225 | 7.8 | 0.0 | 0.00 | 0.00 | 0.00 | 43 | 1003.7 |
| 20260504221033 | 68 | 230 | 8.7 | 0.0 | 0.00 | 0.00 | 0.00 | 44 | 1003.8 |
| 20260504220533 | 68 | 240 | 9.6 | 0.0 | 0.00 | 0.00 | 0.00 | 47 | 1003.8 |
| 20260504220030 | 68 | 250 | 8.7 | 0.0 | 0.00 | 0.00 | 0.00 | 47 | 1003.9 |
| 20260504215530 | 68 | 219 | 7.0 | 0.0 | 0.00 | 0.00 | 0.00 | 44 | 1003.9 |
| 20260504215030 | 68 | 227 | 8.7 | 0.0 | 0.00 | 0.00 | 0.00 | 47 | 1003.9 |
| 20260504214529 | 68 | 221 | 9.6 | 0.0 | 0.00 | 0.00 | 0.00 | 46 | 1003.9 |
| 20260504214028 | 68 | 215 | 8.7 | 0.0 | 0.00 | 0.00 | 0.00 | 47 | 1004.0 |
| 20260504213530 | 68 | 238 | 8.7 | 0.0 | 0.00 | 0.00 | 0.00 | 46 | 1004.0 |
| 20260504213028 | 67 | 230 | 9.6 | 0.0 | 0.00 | 0.00 | 0.00 | 45 | 1004.0 |
| 20260504212528 | 67 | 224 | 9.6 | 0.0 | 0.00 | 0.00 | 0.00 | 46 | 1004.0 |
| 20260504212028 | 67 | 221 | 10.4 | 0.0 | 0.00 | 0.00 | 0.00 | 52 | 1004.0 |
| 20260504211526 | 67 | 247 | 11.3 | 0.0 | 0.00 | 0.00 | 0.00 | 48 | 1004.1 |
| 20260504211027 | 67 | 239 | 11.3 | 0.0 | 0.00 | 0.00 | 0.00 | 48 | 1004.1 |
| 20260504210527 | 67 | 246 | 10.4 | 0.0 | 0.00 | 0.00 | 0.00 | 50 | 1004.1 |
| 20260504210025 | 67 | 219 | 9.6 | 0.0 | 0.00 | 0.00 | 0.00 | 48 | 1004.1 |
| 20260504205529 | 68 | 229 | 9.6 | 0.0 | 0.00 | 0.00 | 0.00 | 48 | 1004.2 |
| 20260504205023 | 67 | 232 | 9.6 | 0.0 | 0.00 | 0.00 | 0.00 | 51 | 1004.2 |
| 20260504204531 | 67 | 223 | 11.3 | 0.0 | 0.00 | 0.00 | 0.00 | 49 | 1004.2 |
| 20260504204023 | 67 | 229 | 12.2 | 0.0 | 0.00 | 0.00 | 0.00 | 47 | 1004.2 |
| 20260504203523 | 66 | 223 | 11.3 | 0.0 | 0.00 | 0.00 | 0.00 | 49 | 1004.3 |
| 20260504203025 | 66 | 207 | 9.6 | 0.0 | 0.00 | 0.00 | 0.00 | 53 | 1004.3 |
| 20260504202522 | 66 | 250 | 9.6 | 0.0 | 0.00 | 0.00 | 0.00 | 52 | 1004.3 |
| 20260504202022 | 66 | 242 | 10.4 | 0.0 | 0.00 | 0.00 | 0.00 | 55 | 1004.3 |
| 20260504201521 | 67 | 234 | 8.7 | 0.0 | 0.00 | 0.00 | 0.00 | 54 | 1004.3 |
| 20260504201021 | 67 | 258 | 7.8 | 0.0 | 0.00 | 0.00 | 0.00 | 55 | 1004.4 |
| 20260504200520 | 67 | 236 | 8.7 | 0.0 | 0.00 | 0.00 | 0.00 | 52 | 1004.4 |
| 20260504200020 | 68 | 235 | 9.6 | 0.0 | 0.00 | 0.00 | 0.00 | 51 | 1004.5 |
| 20260504195518 | 68 | 249 | 11.3 | 0.0 | 0.00 | 0.00 | 0.00 | 50 | 1004.6 |
| 20260504195018 | 68 | 239 | 11.3 | 0.0 | 0.00 | 0.00 | 0.00 | 50 | 1004.7 |
| 20260504194518 | 68 | 241 | 13.0 | 0.0 | 0.00 | 0.00 | 0.00 | 48 | 1004.8 |
| 20260504194017 | 68 | 234 | 14.8 | 0.0 | 0.00 | 0.00 | 0.00 | 51 | 1004.9 |
| 20260504193515 | 67 | 227 | 14.8 | 0.0 | 0.00 | 0.00 | 0.00 | 51 | 1004.9 |
| 20260504193015 | 67 | 221 | 14.8 | 0.0 | 0.00 | 0.00 | 0.00 | 46 | 1004.9 |
| 20260504192514 | 67 | 244 | 13.9 | 0.0 | 0.00 | 0.00 | 0.00 | 55 | 1005.0 |
| 20260504192012 | 67 | 236 | 15.6 | 0.0 | 0.00 | 0.00 | 0.00 | 54 | 1005.1 |
| 20260504191514 | 66 | 246 | 17.4 | 0.0 | 0.00 | 0.00 | 0.00 | 53 | 1005.1 |
| 20260504191012 | 66 | 247 | 17.4 | 0.0 | 0.00 | 0.00 | 0.00 | 55 | 1005.2 |
| 20260504190511 | 67 | 241 | 14.8 | 0.0 | 0.00 | 0.00 | 0.00 | 54 | 1005.3 |
| 20260504190010 | 67 | 252 | 17.4 | 0.0 | 0.00 | 0.00 | 0.00 | 53 | 1005.3 |
| 20260504185509 | 67 | 247 | 19.1 | 0.0 | 0.00 | 0.00 | 0.00 | 53 | 1005.3 |
| 20260504185009 | 67 | 255 | 18.2 | 0.0 | 0.00 | 0.00 | 0.00 | 55 | 1005.4 |
| 20260504184513 | 67 | 252 | 17.4 | 0.0 | 0.00 | 0.00 | 0.00 | 57 | 1005.4 |
| 20260504184008 | 67 | 250 | 15.6 | 0.0 | 0.00 | 0.00 | 0.00 | 57 | 1005.4 |
| 20260504183507 | 66 | 244 | 13.9 | 0.0 | 0.00 | 0.00 | 0.00 | 54 | 1005.4 |
| 20260504183005 | 65 | 248 | 13.0 | 0.0 | 0.00 | 0.00 | 0.00 | 57 | 1005.4 |
| 20260504182504 | 65 | 251 | 12.2 | 0.0 | 0.00 | 0.00 | 0.00 | 53 | 1005.5 |
| 20260504182004 | 64 | 261 | 13.9 | 0.0 | 0.00 | 0.00 | 0.00 | 57 | 1005.5 |
| 20260504181504 | 64 | 246 | 15.6 | 0.0 | 0.00 | 0.00 | 0.00 | 55 | 1005.6 |
| 20260504181004 | 64 | 234 | 13.9 | 0.0 | 0.00 | 0.00 | 0.00 | 53 | 1005.6 |
| 20260504180504 | 64 | 250 | 11.3 | 0.0 | 0.00 | 0.00 | 0.00 | 56 | 1005.6 |
| 20260504180004 | 64 | 244 | 11.3 | 0.0 | 0.00 | 0.00 | 0.00 | 55 | 1005.6 |
| 20260504175502 | 65 | 238 | 12.2 | 0.0 | 0.00 | 0.00 | 0.00 | 54 | 1005.6 |
| 20260504175001 | 65 | 263 | 11.3 | 0.0 | 0.00 | 0.00 | 0.00 | 53 | 1005.6 |
| 20260504174501 | 65 | 196 | 12.2 | 0.0 | 0.00 | 0.00 | 0.00 | 51 | 1005.6 |
| 20260504174002 | 65 | 215 | 13.0 | 0.0 | 0.00 | 0.00 | 0.00 | 53 | 1005.7 |
| 20260504173604 | 65 | 252 | 12.2 | 0.0 | 0.00 | 0.00 | 0.00 | 57 | 1005.7 |
| 20260504173101 | 65 | 252 | 11.3 | 0.0 | 0.00 | 0.00 | 0.00 | 55 | 1005.8 |
| 20260504172558 | 65 | 255 | 13.0 | 0.0 | 0.00 | 0.00 | 0.00 | 58 | 1005.9 |
| 20260504172057 | 65 | 258 | 15.6 | 0.0 | 0.00 | 0.00 | 0.00 | 56 | 1006.0 |
| 20260504171557 | 65 | 246 | 17.4 | 0.0 | 0.00 | 0.00 | 0.00 | 56 | 1006.0 |
| 20260504171056 | 64 | 224 | 16.5 | 0.0 | 0.00 | 0.00 | 0.00 | 56 | 1006.1 |
| 20260504170555 | 64 | 246 | 15.6 | 0.0 | 0.00 | 0.00 | 0.00 | 57 | 1006.1 |
| 20260504151032 | 57 | 227 | 13.9 | 0.0 | 0.00 | 0.00 | 0.00 | 61 | 1007.4 |
| 20260504150535 | 57 | 223 | 12.2 | 0.0 | 0.00 | 0.00 | 0.00 | 58 | 1007.5 |
| 20260504141025 | 56 | 243 | 7.0 | 0.0 | 0.00 | 0.00 | 0.00 | 62 | 1007.6 |
| 20260504140524 | 55 | 238 | 7.8 | 0.0 | 0.00 | 0.00 | 0.00 | 60 | 1007.7 |
| 20260504130511 | 51 | 0.0 | 0.0 | 0.00 | 0.00 | 0.00 | 61 | 1007.9 | |
| 20260504110525 | 40 | 138 | 4.3 | 0.0 | 0.00 | 0.00 | 0.00 | 86 | 1008.3 |
| 20260504100519 | 38 | 140 | 4.3 | 0.0 | 0.00 | 0.00 | 0.00 | 86 | 1008.1 |
| 20260504081553 | 44 | 146 | 4.3 | 0.0 | 0.00 | 0.00 | 0.00 | 82 | 1008.2 |
| 20260504081055 | 44 | 144 | 3.5 | 0.0 | 0.00 | 0.00 | 0.00 | 82 | 1008.4 |
| 20260504080552 | 44 | 145 | 2.6 | 0.0 | 0.00 | 0.00 | 0.00 | 81 | 1008.3 |